Perpignan, France

9:18 PM CEST on April 25, 2017 (GMT +0200)
Rivesaltes

Weather History for LFMP - September, 2013

Change the Weather History Date:

Monday, September 16, 2013

  Actual Average Record
Temperature  
Mean Temperature 68 °F -  
Max Temperature 80 °F 71 °F 90 °F (2015)
Min Temperature 55 °F 56 °F 50 °F (1996)
Cooling Degree Days 2    
Growing Degree Days 18 (Base 50)    
Moisture  
Dew Point 47 °F    
Average Humidity 51    
Maximum Humidity 77    
Minimum Humidity 23    
Precipitation  
Precipitation 0.00 in 0.09 in - ()
Sea Level Pressure  
Sea Level Pressure 29.91 in    
Wind  
Wind Speed 8 mph ()    
Max Wind Speed 20 mph    
Max Gust Speed 32 mph    
Visibility 6.9 miles    
Events      
Averages and records for this station are not official NWS values.
T = Trace of Precipitation, MM = Missing Value Source: Averaged Metar Reports

Daily Weather History Graph

Daily Weather History Graph

Search for Another Location

Airport or City:

Trip Planner

Search our weather history database for the weather conditions in past years. The results will help you decide how hot, cold, wet, or windy it might be!

Date:

Astronomy

Sep. 16, 2013 Rise Set
Actual Time 7:29 AM CEST 7:56 PM CEST
Civil Twilight 7:01 AM CEST 8:24 PM CEST
Nautical Twilight 6:27 AM CEST 8:58 PM CEST
Astronomical Twilight 5:53 AM CEST 9:32 PM CEST
Moon 5:58 PM CEST (9/16) 3:54 AM CEST (9/16)
Length of Visible Light 13h 23m
Length of Day
12h 27m
Waxing Gibbous, 88% of the Moon is Illuminated
Sep 16
Waxing Gibbous
Sep 19
Full
Sep 27
Last Quarter
Oct 5
New
Oct 12
First Quarter

Hourly Weather History & Observations

Time (CEST) Temp. Dew Point Humidity Pressure Visibility Wind Dir Wind Speed Gust Speed Precip Events Conditions
12:00 AM 62.6 °F 46.4 °F 55% 30.04 in 6.2 mi NNW 3.5 mph - N/A   Unknown
12:30 AM 62.6 °F 46.4 °F 55% 30.04 in 6.2 mi NNW 10.4 mph - N/A   Unknown
1:00 AM 60.8 °F 46.4 °F 59% 30.04 in 6.2 mi NW 5.8 mph - N/A   Unknown
1:30 AM 62.6 °F 46.4 °F 55% 30.01 in 6.2 mi NW 10.4 mph - N/A   Unknown
2:00 AM 62 °F 46 °F 45% 30.02 in 37 mi NNW 6.9 mph - -   Clear
2:00 AM 62.6 °F 46.4 °F 55% 30.01 in 6.2 mi NNW 6.9 mph - N/A   Unknown
2:30 AM 59.0 °F 46.4 °F 63% 30.01 in 6.2 mi WNW 5.8 mph - N/A   Unknown
3:00 AM 57.2 °F 46.4 °F 67% 30.01 in 6.2 mi Variable 3.5 mph - N/A   Unknown
3:30 AM 55.4 °F 48.2 °F 77% 29.98 in 6.2 mi SW 6.9 mph - N/A   Unknown
4:00 AM 55.4 °F 48.2 °F 77% 29.98 in 6.2 mi West 4.6 mph - N/A   Unknown
4:30 AM 60.8 °F 48.2 °F 63% 29.95 in 6.2 mi NW 11.5 mph - N/A   Unknown
5:00 AM 60.8 °F 48.2 °F 63% 29.95 in 6.2 mi NW 8.1 mph - N/A   Unknown
5:30 AM 57.2 °F 48.2 °F 72% 29.95 in 6.2 mi SSW 5.8 mph - N/A   Unknown
6:00 AM 57.2 °F 48.2 °F 72% 29.95 in 6.2 mi SSW 6.9 mph - N/A   Unknown
6:30 AM 59.0 °F 48.2 °F 67% 29.92 in 6.2 mi Variable 2.3 mph - N/A   Unknown
7:00 AM 59.0 °F 48.2 °F 67% 29.92 in - SSW 5.8 mph - N/A   Clear
7:30 AM 55.4 °F 48.2 °F 77% 29.92 in - Variable 3.5 mph - N/A   Clear
8:00 AM 56 °F 49 °F 69% 29.94 in 19 mi WSW 5.8 mph - -   Scattered Clouds
8:00 AM 57.2 °F 48.2 °F 72% 29.92 in - WSW 5.8 mph - N/A   Clear
8:30 AM 59.0 °F 50.0 °F 72% 29.92 in - SW 4.6 mph - N/A   Clear
9:00 AM 62.6 °F 48.2 °F 59% 29.92 in - Variable 3.5 mph - N/A   Clear
9:30 AM 64.4 °F 48.2 °F 56% 29.92 in - NW 12.7 mph - N/A   Clear
10:00 AM 66.2 °F 48.2 °F 52% 29.92 in - WNW 12.7 mph - N/A   Clear
10:30 AM 68.0 °F 48.2 °F 49% 29.92 in - West 9.2 mph - N/A   Clear
11:00 AM 69.8 °F 46.4 °F 43% 29.92 in - West 6.9 mph - N/A   Clear
11:30 AM 73.4 °F 46.4 °F 38% 29.92 in - WSW 3.5 mph - N/A   Clear
12:00 PM 73.4 °F 44.6 °F 36% 29.92 in - WNW 9.2 mph - N/A   Clear
12:30 PM 73.4 °F 44.6 °F 36% 29.89 in - NW 6.9 mph - N/A   Clear
1:00 PM 73.4 °F 44.6 °F 36% 29.89 in - NW 9.2 mph - N/A   Clear
1:30 PM 73.4 °F 44.6 °F 36% 29.89 in - NW 8.1 mph - N/A   Clear
2:00 PM 74 °F 44 °F 23% 29.88 in 19 mi NNW 8.1 mph - -   Partly Cloudy
2:00 PM 73.4 °F 42.8 °F 33% 29.89 in 6.2 mi NW 9.2 mph - N/A   Mostly Cloudy
2:30 PM 75.2 °F 42.8 °F 31% 29.86 in 6.2 mi NNW 11.5 mph - N/A   Scattered Clouds
3:13 PM 77.0 °F 39.2 °F 26% 29.86 in 6.2 mi WNW 12.7 mph - N/A   Scattered Clouds
3:30 PM 78.8 °F 39.2 °F 24% 29.83 in 6.2 mi NW 9.2 mph - N/A   Scattered Clouds
4:00 PM 78.8 °F 39.2 °F 24% 29.83 in 6.2 mi NW 11.5 mph - N/A   Scattered Clouds
4:38 PM 78.8 °F 39.2 °F 24% 29.83 in 6.2 mi NNW 6.9 mph - N/A   Scattered Clouds
5:00 PM 77.0 °F 37.4 °F 24% 29.83 in 6.2 mi North 12.7 mph - N/A   Mostly Cloudy
5:30 PM 77.0 °F 39.2 °F 26% 29.83 in 6.2 mi NNW 8.1 mph - N/A   Mostly Cloudy
6:00 PM 78.8 °F 41.0 °F 26% 29.83 in 6.2 mi NW 10.4 mph - N/A   Mostly Cloudy
6:30 PM 77.0 °F 44.6 °F 32% 29.83 in 6.2 mi NW 9.2 mph - N/A   Mostly Cloudy
7:00 PM 77.0 °F 46.4 °F 34% 29.83 in 6.2 mi NW 12.7 mph - N/A   Scattered Clouds
7:30 PM 73.4 °F 50.0 °F 44% 29.83 in 6.2 mi NW 17.3 mph - N/A   Mostly Cloudy
8:00 PM 70 °F 52 °F 43% 29.84 in 37 mi NW 18.4 mph - -   Clear
8:00 PM 69.8 °F 51.8 °F 53% 29.83 in 6.2 mi NW 18.4 mph - N/A   Overcast
8:30 PM 69.8 °F 51.8 °F 53% 29.83 in 6.2 mi NW 18.4 mph 32.2 mph N/A   Unknown
9:00 PM 69.8 °F 53.6 °F 56% 29.86 in 6.2 mi NW 19.6 mph 32.2 mph N/A   Unknown
9:30 PM 69.8 °F 55.4 °F 60% 29.86 in 6.2 mi NW 18.4 mph - N/A   Unknown
10:00 PM 69.8 °F 55.4 °F 60% 29.89 in 6.2 mi NW 19.6 mph - N/A   Unknown
10:30 PM 68.0 °F 55.4 °F 64% 29.89 in 6.2 mi NNW 15.0 mph - N/A   Unknown
11:00 PM 66.2 °F 55.4 °F 68% 29.89 in 6.2 mi NW 12.7 mph - N/A   Partly Cloudy
11:30 PM 66.2 °F 53.6 °F 64% 29.89 in 6.2 mi NW 17.3 mph - N/A   Partly Cloudy